owner,sensor,date,latitude,longitude,vertical_datum,wind_speed,wind_to_direction,wind_speed_of_gust,qcFlag 
TABS,ioos:station:wmo:42046:1,2013-11-01T00:00:00Z,27.8903,-94.0367,4.0,9.4,36.86960097,11.58,'11111222,11111222,11111222' 
TABS,ioos:station:wmo:42046:1,2013-11-01T00:30:00Z,27.8903,-94.0367,4.0,8.639542812,33.4322715,10.32,'11111222,11111222,11111222' 
TABS,ioos:station:wmo:42046:1,2013-11-01T01:00:00Z,27.8903,-94.0367,4.0,8.29710793,59.10695194,10.28,'11111222,11111222,11111222' 
TABS,ioos:station:wmo:42046:1,2013-11-01T01:30:00Z,27.8903,-94.0367,4.0,8.277034493,83.26953788,9.59,'11111222,11111222,11111222' 
TABS,ioos:station:wmo:42046:1,2013-11-01T02:00:00Z,27.8903,-94.0367,4.0,7.364590959,87.97638945,9.63,'11111222,11111222,11111222' 
TABS,ioos:station:wmo:42046:1,2013-11-01T02:30:00Z,27.8903,-94.0367,4.0,6.822939249,93.52960296,8.01,'11111222,11111222,11111222' 
TABS,ioos:station:wmo:42046:1,2013-11-01T03:00:00Z,27.8903,-94.0367,4.0,5.631500688,98.47582793,6.84,'11111222,11111222,11111222' 
TABS,ioos:station:wmo:42046:1,2013-11-01T03:30:00Z,27.8903,-94.0367,4.0,4.742288477,105.0329771,5.78,'11111222,11111222,11111222' 
TABS,ioos:station:wmo:42046:1,2013-11-01T04:00:00Z,27.8903,-94.0367,4.0,3.778954882,116.56541,4.72,'11111222,11111222,11111222' 
TABS,ioos:station:wmo:42046:1,2013-11-01T04:30:00Z,27.8903,-94.0367,4.0,3.473326935,104.6767797,4.53,'11111222,11111222,11111222' 
TABS,ioos:station:wmo:42046:1,2013-11-01T05:00:00Z,27.8903,-94.0367,4.0,2.622918222,110.3007498,3.62,'11111222,11111222,11111222' 
TABS,ioos:station:wmo:42046:1,2013-11-01T05:30:00Z,27.8903,-94.0367,4.0,1.751370892,100.8612101,2.52,'11111222,11111222,11111222' 
TABS,ioos:station:wmo:42046:1,2013-11-01T06:00:00Z,27.8903,-94.0367,4.0,1.543534904,101.9655218,2.58,'11111222,11111222,11111222' 
TABS,ioos:station:wmo:42046:1,2013-11-01T06:30:00Z,27.8903,-94.0367,4.0,0.965660396,58.12005678,1.58,'11111222,11111222,11111222' 
TABS,ioos:station:wmo:42046:1,2013-11-01T07:00:00Z,27.8903,-94.0367,4.0,0.769025357,347.2285768,1.53,'11111222,11111222,11111222' 
TABS,ioos:station:wmo:42046:1,2013-11-01T07:30:00Z,27.8903,-94.0367,4.0,2.134408583,24.64363238,3.1,'11111222,11111222,11111222' 
TABS,ioos:station:wmo:42046:1,2013-11-01T08:00:00Z,27.8903,-94.0367,4.0,1.970228413,21.74714651,2.6,'11111222,11111222,11111222' 
TABS,ioos:station:wmo:42046:1,2013-11-01T08:30:00Z,27.8903,-94.0367,4.0,2.304625783,22.44748569,3.29,'11111222,11111222,11111222' 
TABS,ioos:station:wmo:42046:1,2013-11-01T09:00:00Z,27.8903,-94.0367,4.0,2.411825035,28.47746596,3.51,'11111222,11111222,11111222' 
TABS,ioos:station:wmo:42046:1,2013-11-01T09:30:00Z,27.8903,-94.0367,4.0,3.292187722,33.97939155,4.29,'11111222,11111222,11111222' 
TABS,ioos:station:wmo:42046:1,2013-11-01T10:00:00Z,27.8903,-94.0367,4.0,3.956008089,32.40425725,5.3,'11111222,11111222,11111222' 
TABS,ioos:station:wmo:42046:1,2013-11-01T10:30:00Z,27.8903,-94.0367,4.0,4.488941969,24.33805372,5.62,'11111222,11111222,11111222' 
TABS,ioos:station:wmo:42046:1,2013-11-01T11:00:00Z,27.8903,-94.0367,4.0,4.728889933,42.25707937,6.1,'11111222,11111222,11111222' 
TABS,ioos:station:wmo:42046:1,2013-11-01T11:30:00Z,27.8903,-94.0367,4.0,4.576210222,40.30222347,5.66,'11111222,11111222,11111222' 
TABS,ioos:station:wmo:42046:1,2013-11-01T12:00:00Z,27.8903,-94.0367,4.0,4.428114723,58.85837222,5.97,'11111222,11111222,11111222' 
TABS,ioos:station:wmo:42046:1,2013-11-01T12:30:00Z,27.8903,-94.0367,4.0,4.439481952,49.38438093,6.11,'11111222,11111222,11111222' 
TABS,ioos:station:wmo:42046:1,2013-11-01T13:00:00Z,27.8903,-94.0367,4.0,3.878814252,66.60708403,5.35,'11111222,11111222,11111222' 
TABS,ioos:station:wmo:42046:1,2013-11-01T13:30:00Z,27.8903,-94.0367,4.0,4.85412196,78.11094884,5.8,'11111222,11111222,11111222' 
TABS,ioos:station:wmo:42046:1,2013-11-01T14:00:00Z,27.8903,-94.0367,4.0,4.884639188,84.2423131,6.24,'11111222,11111222,11111222' 
TABS,ioos:station:wmo:42046:1,2013-11-01T14:30:00Z,27.8903,-94.0367,4.0,4.45,90.00042092,5.42,'11111222,11111222,11111222' 
TABS,ioos:station:wmo:42046:1,2013-11-01T15:00:00Z,27.8903,-94.0367,4.0,4.228025544,95.29298858,5.29,'11111222,11111222,11111222' 
TABS,ioos:station:wmo:42046:1,2013-11-01T15:30:00Z,27.8903,-94.0367,4.0,3.721625989,88.30584654,4.61,'11111222,11111222,11111222' 
TABS,ioos:station:wmo:42046:1,2013-11-01T16:00:00Z,27.8903,-94.0367,4.0,2.909037642,98.10265028,4.19,'11111222,11111222,11111222' 
TABS,ioos:station:wmo:42046:1,2013-11-01T16:30:00Z,27.8903,-94.0367,4.0,3.026763949,100.085137,3.92,'11111222,11111222,11111222' 
TABS,ioos:station:wmo:42046:1,2013-11-01T17:00:00Z,27.8903,-94.0367,4.0,2.937362763,97.82706362,3.75,'11111222,11111222,11111222' 
TABS,ioos:station:wmo:42046:1,2013-11-01T17:30:00Z,27.8903,-94.0367,4.0,3.688156721,111.1382643,4.61,'11111222,11111222,11111222' 
TABS,ioos:station:wmo:42046:1,2013-11-01T18:00:00Z,27.8903,-94.0367,4.0,3.83191858,114.0235805,4.88,'11111222,11111222,11111222' 
TABS,ioos:station:wmo:42046:1,2013-11-01T18:30:00Z,27.8903,-94.0367,4.0,3.902870738,101.8285649,5.02,'11111222,11111222,11111222' 
TABS,ioos:station:wmo:42046:1,2013-11-01T19:00:00Z,27.8903,-94.0367,4.0,2.994812181,107.8908226,3.95,'11111222,11111222,11111222' 
TABS,ioos:station:wmo:42046:1,2013-11-01T19:30:00Z,27.8903,-94.0367,4.0,2.124264579,100.3052433,3.2,'11111222,11111222,11111222' 
TABS,ioos:station:wmo:42046:1,2013-11-01T20:00:00Z,27.8903,-94.0367,4.0,1.694343531,97.4609696,2.65,'11111222,11111222,11111222' 
TABS,ioos:station:wmo:42046:1,2013-11-01T20:30:00Z,27.8903,-94.0367,4.0,1.617899873,98.53116658,2.61,'11111222,11111222,11111222' 
TABS,ioos:station:wmo:42046:1,2013-11-01T21:00:00Z,27.8903,-94.0367,4.0,1.796273921,113.2827227,2.89,'11111222,11111222,11111222' 
TABS,ioos:station:wmo:42046:1,2013-11-01T21:30:00Z,27.8903,-94.0367,4.0,1.645387492,112.5130884,2.68,'11111222,11111222,11111222' 
TABS,ioos:station:wmo:42046:1,2013-11-01T22:00:00Z,27.8903,-94.0367,4.0,2.106418762,107.4030844,3.0,'11111222,11111222,11111222' 
TABS,ioos:station:wmo:42046:1,2013-11-01T22:30:00Z,27.8903,-94.0367,4.0,2.699203586,106.3539859,3.64,'11111222,11111222,11111222' 
TABS,ioos:station:wmo:42046:1,2013-11-01T23:00:00Z,27.8903,-94.0367,4.0,2.891677714,106.6806477,3.82,'11111222,11111222,11111222' 
TABS,ioos:station:wmo:42046:1,2013-11-01T23:30:00Z,27.8903,-94.0367,4.0,1.83109257,109.1279864,2.98,'11111222,11111222,11111222' 
TABS,ioos:station:wmo:42046:1,2013-11-02T00:00:00Z,27.8903,-94.0367,4.0,2.601922366,129.0728254,3.48,'11111222,11111222,11111222' 
TABS,ioos:station:wmo:42046:1,2013-11-02T00:30:00Z,27.8903,-94.0367,4.0,3.0740527,126.5347379,4.15,'11111222,11111222,11111222' 
TABS,ioos:station:wmo:42046:1,2013-11-02T01:00:00Z,27.8903,-94.0367,4.0,2.7937967,110.3163874,3.59,'11111222,11111222,11111222' 
TABS,ioos:station:wmo:42046:1,2013-11-02T01:30:00Z,27.8903,-94.0367,4.0,2.826393462,123.0157129,3.55,'11111222,11111222,11111222' 
TABS,ioos:station:wmo:42046:1,2013-11-02T02:00:00Z,27.8903,-94.0367,4.0,2.858828431,118.1789451,3.88,'11111222,11111222,11111222' 
TABS,ioos:station:wmo:42046:1,2013-11-02T02:30:00Z,27.8903,-94.0367,4.0,3.149920634,114.7755036,3.75,'11111222,11111222,11111222' 
TABS,ioos:station:wmo:42046:1,2013-11-02T03:00:00Z,27.8903,-94.0367,4.0,2.978002686,106.1836291,3.86,'11111222,11111222,11111222' 
TABS,ioos:station:wmo:42046:1,2013-11-02T03:30:00Z,27.8903,-94.0367,4.0,3.0152446,106.5722218,3.65,'11111222,11111222,11111222' 
TABS,ioos:station:wmo:42046:1,2013-11-02T04:00:00Z,27.8903,-94.0367,4.0,1.658463144,120.4308621,2.8,'11111222,11111222,11111222' 
TABS,ioos:station:wmo:42046:1,2013-11-02T04:30:00Z,27.8903,-94.0367,4.0,2.442048321,115.7259734,3.26,'11111222,11111222,11111222' 
TABS,ioos:station:wmo:42046:1,2013-11-02T05:00:00Z,27.8903,-94.0367,4.0,2.746124542,145.3843121,3.58,'11111222,11111222,11111222' 
TABS,ioos:station:wmo:42046:1,2013-11-02T05:30:00Z,27.8903,-94.0367,4.0,3.728230143,169.0218379,4.78,'11111222,11111222,11111222' 
TABS,ioos:station:wmo:42046:1,2013-11-02T06:00:00Z,27.8903,-94.0367,4.0,2.936153947,183.710433,3.89,'11111222,11111222,11111222' 
TABS,ioos:station:wmo:42046:1,2013-11-02T06:30:00Z,27.8903,-94.0367,4.0,4.062080748,268.166037,5.27,'11111222,11111222,11111222' 
TABS,ioos:station:wmo:42046:1,2013-11-02T07:00:00Z,27.8903,-94.0367,4.0,2.205107707,327.0304627,3.37,'11111222,11111222,11111222' 
TABS,ioos:station:wmo:42046:1,2013-11-02T07:30:00Z,27.8903,-94.0367,4.0,2.762263565,277.2793657,3.49,'11111222,11111222,11111222' 
TABS,ioos:station:wmo:42046:1,2013-11-02T08:00:00Z,27.8903,-94.0367,4.0,4.92869151,260.4230323,5.81,'11111222,11111222,11111222' 
TABS,ioos:station:wmo:42046:1,2013-11-02T08:30:00Z,27.8903,-94.0367,4.0,11.07105234,282.4670314,14.18,'11111222,11111222,11111222' 
TABS,ioos:station:wmo:42046:1,2013-11-02T09:00:00Z,27.8903,-94.0367,4.0,10.70049064,313.9018311,13.56,'11111222,11111222,11111222' 
TABS,ioos:station:wmo:42046:1,2013-11-02T09:30:00Z,27.8903,-94.0367,4.0,9.838739757,335.8836225,12.36,'11111222,11111222,11111222' 
TABS,ioos:station:wmo:42046:1,2013-11-02T10:00:00Z,27.8903,-94.0367,4.0,9.862682191,332.3955377,12.14,'11111222,11111222,11111222' 
TABS,ioos:station:wmo:42046:1,2013-11-02T10:30:00Z,27.8903,-94.0367,4.0,9.726998509,333.6982269,11.56,'11111222,11111222,11111222' 
TABS,ioos:station:wmo:42046:1,2013-11-02T11:00:00Z,27.8903,-94.0367,4.0,9.876218912,341.032855,11.46,'11111222,11111222,11111222' 
TABS,ioos:station:wmo:42046:1,2013-11-02T11:30:00Z,27.8903,-94.0367,4.0,9.850989798,336.297199,11.75,'11111222,11111222,11111222' 
TABS,ioos:station:wmo:42046:1,2013-11-02T12:00:00Z,27.8903,-94.0367,4.0,9.997944789,338.464475,11.82,'11111222,11111222,11111222' 
TABS,ioos:station:wmo:42046:1,2013-11-02T12:30:00Z,27.8903,-94.0367,4.0,10.53548765,349.8311651,12.07,'11111222,11111222,11111222' 
TABS,ioos:station:wmo:42046:1,2013-11-02T13:00:00Z,27.8903,-94.0367,4.0,12.05723849,356.1477921,14.51,'11111222,11111222,11111222' 
TABS,ioos:station:wmo:42046:1,2013-11-02T13:30:00Z,27.8903,-94.0367,4.0,12.33014598,0.278598268,14.29,'11111222,11111222,11111222' 
TABS,ioos:station:wmo:42046:1,2013-11-02T14:00:00Z,27.8903,-94.0367,4.0,11.82710869,1.986405449,14.95,'11111222,11111222,11111222' 
TABS,ioos:station:wmo:42046:1,2013-11-02T14:30:00Z,27.8903,-94.0367,4.0,12.71983097,2.252587208,14.91,'11111222,11111222,11111222' 
TABS,ioos:station:wmo:42046:1,2013-11-02T15:00:00Z,27.8903,-94.0367,4.0,12.23521557,2.857511069,14.27,'11111222,11111222,11111222' 
TABS,ioos:station:wmo:42046:1,2013-11-02T15:30:00Z,27.8903,-94.0367,4.0,11.45021397,359.6495148,13.75,'11111222,11144222,11111222' 
TABS,ioos:station:wmo:42046:1,2013-11-02T16:00:00Z,27.8903,-94.0367,4.0,12.18642688,16.73952453,14.52,'11111222,11111222,11111222' 
TABS,ioos:station:wmo:42046:1,2013-11-02T16:30:00Z,27.8903,-94.0367,4.0,11.79181496,16.6059144,13.91,'11111222,11111222,11111222' 
TABS,ioos:station:wmo:42046:1,2013-11-02T17:00:00Z,27.8903,-94.0367,4.0,10.96642604,13.12360519,13.51,'11111222,11111222,11111222' 
TABS,ioos:station:wmo:42046:1,2013-11-02T17:30:00Z,27.8903,-94.0367,4.0,10.99447589,4.538376037,13.71,'11111222,11111222,11111222' 
TABS,ioos:station:wmo:42046:1,2013-11-02T18:00:00Z,27.8903,-94.0367,4.0,11.02688533,3.170965566,13.1,'11111222,11111222,11111222' 
TABS,ioos:station:wmo:42046:1,2013-11-02T18:30:00Z,27.8903,-94.0367,4.0,10.90676854,10.03209081,13.2,'11111222,11111222,11111222' 
TABS,ioos:station:wmo:42046:1,2013-11-02T19:00:00Z,27.8903,-94.0367,4.0,10.99004095,14.70616808,13.26,'11111222,11111222,11111222' 
TABS,ioos:station:wmo:42046:1,2013-11-02T19:30:00Z,27.8903,-94.0367,4.0,10.80761306,16.17089241,13.2,'11111222,11111222,11111222' 
TABS,ioos:station:wmo:42046:1,2013-11-02T20:00:00Z,27.8903,-94.0367,4.0,11.00838317,9.094156694,13.3,'11111222,11111222,11111222' 
TABS,ioos:station:wmo:42046:1,2013-11-02T20:30:00Z,27.8903,-94.0367,4.0,11.45785757,14.55751685,13.78,'11111222,11111222,11111222' 
TABS,ioos:station:wmo:42046:1,2013-11-02T21:00:00Z,27.8903,-94.0367,4.0,11.76624409,10.47882847,14.23,'11111222,11111222,11111222' 
TABS,ioos:station:wmo:42046:1,2013-11-02T21:30:00Z,27.8903,-94.0367,4.0,11.37777219,21.44580177,13.47,'11111222,11111222,11111222' 
TABS,ioos:station:wmo:42046:1,2013-11-02T22:00:00Z,27.8903,-94.0367,4.0,10.96332523,20.33558459,12.83,'11111222,11111222,11111222' 
TABS,ioos:station:wmo:42046:1,2013-11-02T22:30:00Z,27.8903,-94.0367,4.0,11.30256608,4.973910129,14.05,'11111222,11111222,11111222' 
TABS,ioos:station:wmo:42046:1,2013-11-02T23:00:00Z,27.8903,-94.0367,4.0,11.20760902,13.88721287,13.84,'11111222,11111222,11111222' 
TABS,ioos:station:wmo:42046:1,2013-11-02T23:30:00Z,27.8903,-94.0367,4.0,9.703865209,11.47180893,12.09,'11111222,11111222,11111222' 
TABS,ioos:station:wmo:42046:1,2013-11-03T00:00:00Z,27.8903,-94.0367,4.0,9.072706322,3.032485066,11.29,'11111222,11111222,11111222' 
TABS,ioos:station:wmo:42046:1,2013-11-03T00:30:00Z,27.8903,-94.0367,4.0,8.865799456,5.826117946,11.3,'11111222,11111222,11111222' 
TABS,ioos:station:wmo:42046:1,2013-11-03T01:00:00Z,27.8903,-94.0367,4.0,8.887659984,12.40969749,10.75,'11111222,11111222,11111222' 
TABS,ioos:station:wmo:42046:1,2013-11-03T01:30:00Z,27.8903,-94.0367,4.0,7.925616695,12.75596155,11.08,'11111222,11111222,11111222' 
TABS,ioos:station:wmo:42046:1,2013-11-03T02:00:00Z,27.8903,-94.0367,4.0,8.131057742,17.61019407,11.16,'11111222,11111222,11111222' 
TABS,ioos:station:wmo:42046:1,2013-11-03T02:30:00Z,27.8903,-94.0367,4.0,7.754360064,1.92124539,10.04,'11111222,11111222,11111222' 
TABS,ioos:station:wmo:42046:1,2013-11-03T03:00:00Z,27.8903,-94.0367,4.0,8.141627601,8.11992054,10.58,'11111222,11111222,11111222' 
TABS,ioos:station:wmo:42046:1,2013-11-03T03:30:00Z,27.8903,-94.0367,4.0,7.289204346,13.08274962,9.84,'11111222,11111222,11111222' 
TABS,ioos:station:wmo:42046:1,2013-11-03T04:00:00Z,27.8903,-94.0367,4.0,7.750367733,26.92845063,10.09,'11111222,11111222,11111222' 
TABS,ioos:station:wmo:42046:1,2013-11-03T04:30:00Z,27.8903,-94.0367,4.0,7.760734501,25.40911541,9.5,'11111222,11111222,11111222' 
TABS,ioos:station:wmo:42046:1,2013-11-03T05:00:00Z,27.8903,-94.0367,4.0,7.204116879,32.5868024,9.87,'11111222,11111222,11111222' 
TABS,ioos:station:wmo:42046:1,2013-11-03T05:30:00Z,27.8903,-94.0367,4.0,6.86705905,28.05748692,8.74,'11111222,11111222,11111222' 
TABS,ioos:station:wmo:42046:1,2013-11-03T06:00:00Z,27.8903,-94.0367,4.0,7.455233061,19.67424639,9.66,'11111222,11111222,11111222' 
TABS,ioos:station:wmo:42046:1,2013-11-03T06:30:00Z,27.8903,-94.0367,4.0,6.709224993,38.64617042,9.21,'11111222,11111222,11111222' 
TABS,ioos:station:wmo:42046:1,2013-11-03T07:00:00Z,27.8903,-94.0367,4.0,6.088957218,30.05972999,8.39,'11111222,11111222,11111222' 
TABS,ioos:station:wmo:42046:1,2013-11-03T07:30:00Z,27.8903,-94.0367,4.0,6.341545553,26.80721289,9.42,'11111222,11111222,11111222' 
TABS,ioos:station:wmo:42046:1,2013-11-03T08:00:00Z,27.8903,-94.0367,4.0,6.784460185,34.36904888,9.05,'11111222,11111222,11111222' 
TABS,ioos:station:wmo:42046:1,2013-11-03T08:30:00Z,27.8903,-94.0367,4.0,6.44287203,33.8624293,8.91,'11111222,11111222,11111222' 
TABS,ioos:station:wmo:42046:1,2013-11-03T09:00:00Z,27.8903,-94.0367,4.0,6.875638152,50.42883052,8.98,'11111222,11111222,11111222' 
TABS,ioos:station:wmo:42046:1,2013-11-03T09:30:00Z,27.8903,-94.0367,4.0,6.616078899,47.14344016,8.76,'11111222,11111222,11111222' 
TABS,ioos:station:wmo:42046:1,2013-11-03T10:00:00Z,27.8903,-94.0367,4.0,5.4345653,41.34430422,7.75,'11111222,11111222,11111222' 
TABS,ioos:station:wmo:42046:1,2013-11-03T10:30:00Z,27.8903,-94.0367,4.0,5.424426237,53.84803827,7.63,'11111222,11111222,11111222' 
TABS,ioos:station:wmo:42046:1,2013-11-03T11:00:00Z,27.8903,-94.0367,4.0,4.951494724,55.28255153,6.96,'11111222,11111222,11111222' 
TABS,ioos:station:wmo:42046:1,2013-11-03T11:30:00Z,27.8903,-94.0367,4.0,5.228546643,62.55243423,6.47,'11111222,11111222,11111222' 
TABS,ioos:station:wmo:42046:1,2013-11-03T12:00:00Z,27.8903,-94.0367,4.0,4.832556259,83.3451696,7.53,'11111222,11111222,11111222' 
TABS,ioos:station:wmo:42046:1,2013-11-03T12:30:00Z,27.8903,-94.0367,4.0,5.44254536,72.13062008,7.51,'11111222,11111222,11111222' 
TABS,ioos:station:wmo:42046:1,2013-11-03T13:00:00Z,27.8903,-94.0367,4.0,6.278638387,82.86326062,8.64,'11111222,11111222,11111222' 
TABS,ioos:station:wmo:42046:1,2013-11-03T13:30:00Z,27.8903,-94.0367,4.0,6.377036929,76.85683784,8.96,'11111222,11111222,11111222' 
TABS,ioos:station:wmo:42046:1,2013-11-03T14:00:00Z,27.8903,-94.0367,4.0,5.586528439,92.77063024,7.1,'11111222,11111222,11111222' 
TABS,ioos:station:wmo:42046:1,2013-11-03T14:30:00Z,27.8903,-94.0367,4.0,6.20196743,79.5956008,9.07,'11111222,11111222,11111222' 
TABS,ioos:station:wmo:42046:1,2013-11-03T15:00:00Z,27.8903,-94.0367,4.0,5.120790955,79.19437078,6.62,'11111222,11111222,11111222' 
TABS,ioos:station:wmo:42046:1,2013-11-03T15:30:00Z,27.8903,-94.0367,4.0,6.225431712,87.60597771,7.93,'11111222,11111222,11111222' 
TABS,ioos:station:wmo:42046:1,2013-11-03T16:00:00Z,27.8903,-94.0367,4.0,6.1620938,79.05437625,8.04,'11111222,11111222,11111222' 
TABS,ioos:station:wmo:42046:1,2013-11-03T16:30:00Z,27.8903,-94.0367,4.0,6.490978355,76.81974181,8.43,'11111222,11111222,11111222' 
TABS,ioos:station:wmo:42046:1,2013-11-03T17:00:00Z,27.8903,-94.0367,4.0,6.660480463,76.63102236,8.69,'11111222,11111222,11111222' 
TABS,ioos:station:wmo:42046:1,2013-11-03T17:30:00Z,27.8903,-94.0367,4.0,5.261862788,88.47495987,7.16,'11111222,11111222,11111222' 
TABS,ioos:station:wmo:42046:1,2013-11-03T18:00:00Z,27.8903,-94.0367,4.0,6.507995083,77.75727651,8.46,'11111222,11111222,11111222' 
TABS,ioos:station:wmo:42046:1,2013-11-03T18:30:00Z,27.8903,-94.0367,4.0,6.310982491,75.50096166,7.82,'11111222,11111222,11111222' 
TABS,ioos:station:wmo:42046:1,2013-11-03T19:00:00Z,27.8903,-94.0367,4.0,5.491812087,86.24103219,7.54,'11111222,11111222,11111222' 
TABS,ioos:station:wmo:42046:1,2013-11-03T19:30:00Z,27.8903,-94.0367,4.0,5.1959311,83.25754769,7.5,'11111222,11111222,11111222' 
TABS,ioos:station:wmo:42046:1,2013-11-03T20:00:00Z,27.8903,-94.0367,4.0,6.332850859,88.28032077,8.48,'11111222,11111222,11111222' 
TABS,ioos:station:wmo:42046:1,2013-11-03T20:30:00Z,27.8903,-94.0367,4.0,6.357562426,92.79531224,8.05,'11111222,11111222,11111222' 
TABS,ioos:station:wmo:42046:1,2013-11-03T21:00:00Z,27.8903,-94.0367,4.0,5.435752018,92.63648046,6.94,'11111222,11111222,11111222' 
TABS,ioos:station:wmo:42046:1,2013-11-03T21:30:00Z,27.8903,-94.0367,4.0,5.701263018,88.79353312,7.16,'11111222,11111222,11111222' 
TABS,ioos:station:wmo:42046:1,2013-11-03T22:00:00Z,27.8903,-94.0367,4.0,5.96540862,84.70951025,7.74,'11111222,11111222,11111222' 
TABS,ioos:station:wmo:42046:1,2013-11-03T22:30:00Z,27.8903,-94.0367,4.0,5.502626646,80.05797197,7.29,'11111222,11111222,11111222' 
TABS,ioos:station:wmo:42046:1,2013-11-03T23:00:00Z,27.8903,-94.0367,4.0,5.112827007,91.90583554,7.33,'11111222,11111222,11111222' 
TABS,ioos:station:wmo:42046:1,2013-11-03T23:30:00Z,27.8903,-94.0367,4.0,5.52196523,77.44829207,7.16,'11111222,11111222,11111222' 
TABS,ioos:station:wmo:42046:1,2013-11-04T00:00:00Z,27.8903,-94.0367,4.0,5.520144926,76.16475828,7.03,'11111222,11111222,11111222' 
TABS,ioos:station:wmo:42046:1,2013-11-04T00:30:00Z,27.8903,-94.0367,4.0,5.704463165,75.79284619,7.65,'11111222,11111222,11111222' 
TABS,ioos:station:wmo:42046:1,2013-11-04T01:00:00Z,27.8903,-94.0367,4.0,6.012395529,79.9419396,7.41,'11111222,11111222,11111222' 
TABS,ioos:station:wmo:42046:1,2013-11-04T01:30:00Z,27.8903,-94.0367,4.0,6.53235792,85.25780042,8.49,'11111222,11111222,11111222' 
TABS,ioos:station:wmo:42046:1,2013-11-04T02:00:00Z,27.8903,-94.0367,4.0,5.604578485,99.96692311,6.82,'11111222,11111222,11111222' 
TABS,ioos:station:wmo:42046:1,2013-11-04T02:30:00Z,27.8903,-94.0367,4.0,5.945687513,92.50671134,8.43,'11111222,11111222,11111222' 
TABS,ioos:station:wmo:42046:1,2013-11-04T03:00:00Z,27.8903,-94.0367,4.0,6.079802628,111.4167809,7.34,'11111222,11111222,11111222' 
TABS,ioos:station:wmo:42046:1,2013-11-04T03:30:00Z,27.8903,-94.0367,4.0,6.849963504,104.8886994,9.24,'11111222,11111222,11111222' 
TABS,ioos:station:wmo:42046:1,2013-11-04T04:00:00Z,27.8903,-94.0367,4.0,7.263146701,115.9656622,8.97,'11111222,11111222,11111222' 
TABS,ioos:station:wmo:42046:1,2013-11-04T04:30:00Z,27.8903,-94.0367,4.0,7.741350011,116.300614,9.42,'11111222,11111222,11111222' 
TABS,ioos:station:wmo:42046:1,2013-11-04T05:00:00Z,27.8903,-94.0367,4.0,7.700084415,119.8282965,9.33,'11111222,11111222,11111222' 
TABS,ioos:station:wmo:42046:1,2013-11-04T05:30:00Z,27.8903,-94.0367,4.0,7.796332471,121.0397262,9.15,'11111222,11111222,11111222' 
TABS,ioos:station:wmo:42046:1,2013-11-04T06:00:00Z,27.8903,-94.0367,4.0,7.952106639,122.0515536,10.02,'11111222,11111222,11111222' 
TABS,ioos:station:wmo:42046:1,2013-11-04T06:30:00Z,27.8903,-94.0367,4.0,8.318653737,133.4416351,10.15,'11111222,11111222,11111222' 
TABS,ioos:station:wmo:42046:1,2013-11-04T07:00:00Z,27.8903,-94.0367,4.0,8.81621801,126.4672977,10.47,'11111222,11111222,11111222' 
TABS,ioos:station:wmo:42046:1,2013-11-04T07:30:00Z,27.8903,-94.0367,4.0,8.869554668,129.2351946,10.52,'11111222,11111222,11111222' 
TABS,ioos:station:wmo:42046:1,2013-11-04T08:00:00Z,27.8903,-94.0367,4.0,8.554022446,128.116176,10.44,'11111222,11111222,11111222' 
TABS,ioos:station:wmo:42046:1,2013-11-04T08:30:00Z,27.8903,-94.0367,4.0,8.4935034,122.792315,10.33,'11111222,11111222,11111222' 
TABS,ioos:station:wmo:42046:1,2013-11-04T09:00:00Z,27.8903,-94.0367,4.0,8.091439921,117.6104883,9.72,'11111222,11111222,11111222' 
TABS,ioos:station:wmo:42046:1,2013-11-04T09:30:00Z,27.8903,-94.0367,4.0,7.513215024,129.7082582,9.54,'11111222,11111222,11111222' 
TABS,ioos:station:wmo:42046:1,2013-11-04T10:00:00Z,27.8903,-94.0367,4.0,7.02293386,124.323985,8.62,'11111222,11111222,11111222' 
TABS,ioos:station:wmo:42046:1,2013-11-04T10:30:00Z,27.8903,-94.0367,4.0,7.548489915,126.2174485,9.03,'11111222,11111222,11111222' 
TABS,ioos:station:wmo:42046:1,2013-11-04T11:00:00Z,27.8903,-94.0367,4.0,7.817237364,120.4361654,9.5,'11111222,11111222,11111222' 
TABS,ioos:station:wmo:42046:1,2013-11-04T11:30:00Z,27.8903,-94.0367,4.0,8.08566633,121.9606619,9.69,'11111222,11111222,11111222' 
TABS,ioos:station:wmo:42046:1,2013-11-04T12:00:00Z,27.8903,-94.0367,4.0,7.681939859,125.0351309,9.12,'11111222,11111222,11111222' 
TABS,ioos:station:wmo:42046:1,2013-11-04T12:30:00Z,27.8903,-94.0367,4.0,7.35174129,119.3198974,9.66,'11111222,11111222,11111222' 
TABS,ioos:station:wmo:42046:1,2013-11-04T13:00:00Z,27.8903,-94.0367,4.0,7.085435766,112.8379442,9.15,'11111222,11111222,11111222' 
TABS,ioos:station:wmo:42046:1,2013-11-04T13:30:00Z,27.8903,-94.0367,4.0,7.665950691,113.6896581,9.24,'11111222,11111222,11111222' 
TABS,ioos:station:wmo:42046:1,2013-11-04T14:00:00Z,27.8903,-94.0367,4.0,8.194858144,113.0612496,9.71,'11111222,11111222,11111222' 
TABS,ioos:station:wmo:42046:1,2013-11-04T14:30:00Z,27.8903,-94.0367,4.0,8.343344653,113.5235749,9.91,'11111222,11111222,11111222' 
TABS,ioos:station:wmo:42046:1,2013-11-04T15:00:00Z,27.8903,-94.0367,4.0,8.899578642,116.7093686,10.82,'11111222,11111222,11111222' 
TABS,ioos:station:wmo:42046:1,2013-11-04T15:30:00Z,27.8903,-94.0367,4.0,9.347261631,119.6920122,11.16,'11111222,11111222,11111222' 
TABS,ioos:station:wmo:42046:1,2013-11-04T16:00:00Z,27.8903,-94.0367,4.0,10.1348705,117.3744739,13.04,'11111222,11111222,11111222' 
TABS,ioos:station:wmo:42046:1,2013-11-04T16:30:00Z,27.8903,-94.0367,4.0,10.07060078,123.5799528,11.86,'11111222,11111222,11111222' 
TABS,ioos:station:wmo:42046:1,2013-11-04T17:00:00Z,27.8903,-94.0367,4.0,10.79601778,119.8900513,12.32,'11111222,11111222,11111222' 
TABS,ioos:station:wmo:42046:1,2013-11-04T17:30:00Z,27.8903,-94.0367,4.0,10.9553366,122.3993361,12.95,'11111222,11111222,11111222' 
TABS,ioos:station:wmo:42046:1,2013-11-04T18:00:00Z,27.8903,-94.0367,4.0,10.19848028,123.238536,11.72,'11111222,11111222,11111222' 
TABS,ioos:station:wmo:42046:1,2013-11-04T18:30:00Z,27.8903,-94.0367,4.0,11.03816108,122.4954237,13.33,'11111222,11111222,11111222' 